Date String (YYYY-MM-DD hh:mm:ss) UTC,Instrument flags,absolute air pressure of the measurement (hPa),sample flow rate (lpm),inlet stack bypass flow (lpm),air temperature of the measurement (°C),ambient temperature measured by the external sensor (°C),aerosol sample conditioner tube jacket temperature (°C),OPC LED temperature (°C),internal box temperature (°C),relative humidity of the measurement (%),span deviation,mass concentration of particles derived from Lorenz-Mie calculation of OPC scattering (μg/m³),mass concentration of particles derived from Lorenz-Mie calculation of OPC scattering (μg/m³),mass concentration of particles derived from Lorenz-Mie calculation of OPC scattering (μg/m³)
DateTimeUTC,F1_M11,P_M11,Q1_M11,Q2_M11,T1_M11,T2_M11,T3_M11,T4_M11,T5_M11,U1_M11,ZSPAN_M11,X0_M11,X2_M11,X1_M11
2023-11-15 12:00:00,SystemResetWarning,0833.2,5.00,000.00,025.8,024.6,000.0,034.3,027.2,7.5,0005.5,0016.82,0006.01,0004.49
2023-11-15 12:01:00,SystemResetWarning,0833.3,5.00,000.00,025.8,024.6,000.0,034.3,027.2,7.4,0006.0,0016.88,0006.07,0004.51
2023-11-15 12:02:00,SystemResetWarning,0833.2,5.00,000.00,025.8,024.5,000.0,034.3,027.2,7.3,0005.6,0016.67,0006.05,0004.47
2023-11-15 12:03:00,SystemResetWarning,0833.2,5.01,000.00,025.8,024.5,000.0,034.3,027.2,7.4,0005.9,0016.63,0005.94,0004.41
2023-11-15 12:04:00,SystemResetWarning,0833.2,5.00,000.00,025.8,024.5,000.0,034.3,027.2,7.4,0005.4,0015.40,0005.74,0004.31
2023-11-15 12:05:00,SystemResetWarning,0833.2,5.00,000.00,025.8,024.5,000.0,034.3,027.2,7.4,0004.9,0015.90,0005.63,0004.22
2023-11-15 12:06:00,SystemResetWarning,0833.2,5.00,000.00,025.8,024.5,000.0,034.2,027.2,7.3,0004.9,0015.53,0005.49,0004.14
2023-11-15 12:07:00,SystemResetWarning,0833.2,5.00,000.00,025.8,024.5,000.0,034.2,027.1,7.3,0000.3,0015.27,0005.37,0004.08
2023-11-15 12:08:00,SystemResetWarning,0833.2,5.00,000.00,025.8,024.5,000.0,034.2,027.1,7.3,0003.1,0015.11,0005.31,0004.06
2023-11-15 12:09:00,SystemResetWarning,0833.2,5.00,000.00,025.8,024.5,000.0,034.2,027.1,7.3,0002.7,0015.01,0005.28,0004.04
2023-11-15 12:10:00,SystemResetWarning,0833.2,5.00,000.00,025.8,024.5,000.0,034.2,027.1,7.3,0000.0,0015.44,0005.24,0004.01
2023-11-15 12:11:00,SystemResetWarning,0833.2,5.00,000.00,025.7,024.5,000.0,034.2,027.1,7.3,0000.0,0015.24,0005.21,0004.00
2023-11-15 12:12:00,SystemResetWarning,0833.2,5.00,000.00,025.7,024.5,000.0,034.2,027.1,7.4,0000.0,0014.90,0005.17,0003.98
2023-11-15 12:13:00,SystemResetWarning,0833.2,4.99,000.00,025.7,024.5,000.0,034.2,027.1,7.5,0000.0,0014.86,0005.15,0003.98
2023-11-15 12:14:00,SystemResetWarning,0833.2,5.00,000.00,025.7,024.5,000.0,034.2,027.1,7.5,0000.0,0015.00,0005.21,0004.02
2023-11-15 12:15:00,SystemResetWarning,0833.2,5.00,000.00,025.7,024.5,000.0,034.2,027.1,7.4,0000.0,0014.87,0005.28,0004.06
2023-11-15 12:16:00,SystemResetWarning,0833.2,5.00,000.00,025.7,024.5,000.0,034.2,027.1,7.4,0000.1,0015.26,0005.32,0004.10
2023-11-15 12:17:00,SystemResetWarning,0833.2,5.00,000.00,025.7,024.5,000.0,034.2,027.0,7.6,0000.6,0015.22,0005.36,0004.11
2023-11-15 12:18:00,SystemResetWarning,0833.2,5.01,000.00,025.7,024.4,000.0,034.2,027.0,7.9,0000.0,0015.00,0005.37,0004.11
2023-11-15 12:19:00,SystemResetWarning,0833.2,5.00,000.00,025.7,024.4,000.0,034.1,027.0,8.3,0000.0,0015.14,0005.36,0004.08
2023-11-15 12:20:00,SystemResetWarning,0833.2,5.01,000.00,025.7,024.4,000.0,034.1,027.0,8.1,0000.7,0014.97,0005.29,0004.04
2023-11-15 12:21:00,SystemResetWarning,0833.2,5.00,000.00,025.7,024.4,000.0,034.1,027.0,7.8,0004.7,0014.35,0005.30,0004.04
2023-11-15 12:22:00,SystemResetWarning,0833.2,5.00,000.00,025.6,024.4,000.0,034.1,027.0,7.9,0004.0,0014.36,0005.25,0004.01
2023-11-15 12:23:00,SystemResetWarning,0833.2,5.00,000.00,025.6,024.4,000.0,034.1,027.0,7.9,0005.2,0014.12,0005.18,0003.96
2023-11-15 12:24:00,SystemResetWarning,0833.2,5.00,000.00,025.6,024.4,000.0,034.1,027.0,7.8,0004.7,0013.63,0005.05,0003.91
2023-11-15 12:25:00,SystemResetWarning,0833.2,4.99,000.00,025.6,024.3,000.0,034.1,027.0,8.0,0004.6,0013.07,0004.93,0003.84
2023-11-15 12:26:00,SystemResetWarning,0833.2,5.00,000.00,025.6,024.3,000.0,034.1,027.0,8.0,0004.8,0013.61,0004.83,0003.79
2023-11-15 12:27:00,SystemResetWarning,0833.2,5.00,000.00,025.6,024.3,000.0,034.1,027.0,7.9,0001.1,0012.60,0004.75,0003.74
2023-11-15 12:28:00,SystemResetWarning,0833.2,4.99,000.00,025.6,024.3,000.0,034.0,027.0,7.9,0000.0,0012.50,0004.70,0003.72
2023-11-15 12:29:00,SystemResetWarning,0833.2,5.00,000.00,025.6,024.3,000.0,034.0,027.0,7.8,0000.0,0012.78,0004.65,0003.71
2023-11-15 12:30:00,SystemResetWarning,0833.2,5.00,000.00,025.6,024.3,000.0,034.0,026.9,7.8,0000.0,0012.74,0004.67,0003.71
2023-11-15 12:31:00,SystemResetWarning,0833.2,5.00,000.00,025.6,024.3,000.0,034.0,026.9,7.9,0000.0,0012.78,0004.69,0003.69
2023-11-15 12:32:00,SystemResetWarning,0833.1,5.00,000.00,025.6,024.3,000.0,034.0,026.9,8.1,0000.0,0012.84,0004.64,0003.67
2023-11-15 12:33:00,SystemResetWarning,0833.2,5.00,000.00,025.5,024.3,000.0,034.0,026.8,8.5,0000.0,0012.34,0004.61,0003.66
2023-11-15 12:34:00,SystemResetWarning,0833.2,5.00,000.00,025.5,024.3,000.0,034.0,026.8,8.3,0000.0,0011.96,0004.58,0003.65
2023-11-15 12:35:00,SystemResetWarning,0833.0,5.00,000.00,025.5,024.3,000.0,034.0,026.9,8.2,0000.0,0012.10,0004.62,0003.66
2023-11-15 12:36:00,SystemResetWarning,0833.0,5.00,000.00,025.5,024.3,000.0,034.0,026.9,8.1,0000.0,0012.48,0004.66,0003.68
2023-11-15 12:37:00,SystemResetWarning,0833.0,5.00,000.00,025.5,024.3,000.0,034.0,026.9,8.1,0000.0,0012.10,0004.70,0003.68
2023-11-15 12:38:00,SystemResetWarning,0833.0,5.01,000.00,025.5,024.3,000.0,034.0,026.9,8.1,0000.0,0011.88,0004.69,0003.67
2023-11-15 12:39:00,SystemResetWarning,0833.0,4.99,000.00,025.5,024.3,000.0,034.0,026.9,8.1,0000.0,0011.37,0004.59,0003.62
2023-11-15 12:40:00,SystemResetWarning,0833.4,5.00,000.00,025.5,024.3,000.0,033.9,026.9,8.1,0000.0,0010.69,0004.54,0003.58
2023-11-15 12:41:00,SystemResetWarning,0833.3,4.99,000.00,025.5,024.3,000.0,033.9,026.9,8.0,0000.0,0010.38,0004.46,0003.55
2023-11-15 12:42:00,SystemResetWarning,0833.4,5.00,000.00,025.5,024.3,000.0,033.9,026.8,7.9,0000.0,0010.96,0004.40,0003.54
2023-11-15 12:43:00,SystemResetWarning,0833.4,5.00,000.00,025.5,024.2,000.0,033.9,026.9,7.9,0000.0,0010.70,0004.41,0003.53
2023-11-15 12:44:00,SystemResetWarning,0833.3,5.01,000.00,025.5,024.2,000.0,033.9,026.8,8.0,0000.0,0011.16,0004.40,0003.52
2023-11-15 12:45:00,SystemResetWarning,0833.2,5.01,000.00,025.5,024.2,000.0,033.9,026.8,8.0,0000.0,0011.11,0004.35,0003.49
2023-11-15 12:46:00,SystemResetWarning,0833.0,4.99,000.00,025.5,024.2,000.0,033.9,026.8,8.2,0000.0,0011.55,0004.29,0003.47
2023-11-15 12:47:00,SystemResetWarning,0833.0,4.99,000.00,025.5,024.2,000.0,033.9,026.8,8.3,0000.0,0010.89,0004.22,0003.45
2023-11-15 12:48:00,SystemResetWarning,0833.0,4.99,000.00,025.4,024.2,000.0,033.9,026.8,8.3,0000.0,0010.98,0004.22,0003.45
2023-11-15 12:49:00,SystemResetWarning,0833.2,5.00,000.00,025.4,024.2,000.0,033.9,026.8,8.2,0000.0,0012.41,0004.26,0003.45
2023-11-15 12:50:00,SystemResetWarning,0833.4,5.01,000.00,025.4,024.2,000.0,033.9,026.8,8.2,0000.0,0012.89,0004.34,0003.49
2023-11-15 12:51:00,SystemResetWarning,0832.9,5.01,000.00,025.4,024.2,000.0,033.9,026.8,8.1,0000.0,0013.03,0004.39,0003.51
2023-11-15 12:52:00,SystemResetWarning,0832.9,5.00,000.00,025.4,024.2,000.0,033.9,026.8,8.1,0000.0,0012.98,0004.39,0003.51
2023-11-15 12:53:00,SystemResetWarning,0832.9,4.99,000.00,025.4,024.2,000.0,033.8,026.8,8.1,0000.0,0012.20,0004.38,0003.49
2023-11-15 12:54:00,SystemResetWarning,0833.0,4.99,000.00,025.4,024.2,000.0,033.8,026.8,8.1,0000.0,0011.84,0004.29,0003.47
2023-11-15 12:55:00,SystemResetWarning,0833.3,5.00,000.00,025.4,024.2,000.0,033.8,026.8,8.1,0000.0,0011.51,0004.30,0003.45
2023-11-15 12:56:00,SystemResetWarning,0833.2,5.00,000.00,025.4,024.2,000.0,033.8,026.8,8.2,0000.0,0011.60,0004.32,0003.44
2023-11-15 12:57:00,SystemResetWarning,0833.4,5.02,000.00,025.4,024.2,000.0,033.8,026.7,8.2,0000.0,0011.64,0004.37,0003.44
2023-11-15 12:58:00,SystemResetWarning,0833.5,5.01,000.00,025.4,024.2,000.0,033.8,026.7,8.2,0000.0,0011.21,0004.37,0003.43
2023-11-15 12:59:00,SystemResetWarning,0833.3,5.00,000.00,025.4,024.2,000.0,033.8,026.7,8.2,0000.0,0011.12,0004.36,0003.42
